Regional Weather Roundup
Issued by NWS Albany, NY

Current Version | Previous Version | Text Only | Print | Product List | Glossary On
Versions: 1 2 3 4 5 6 7 8 9 10 11 12 13 14 15 16 17 18 19 20 21 22 23 24 25 26 27
000
ASUS41 KALY 240910
RWRALY

NEW YORK STATE HOURLY WEATHER ROUNDUP
NATIONAL WEATHER SERVICE ALBANY NY
500 AM EDT MON APR 24 2017

NOTE: "FAIR" INDICATES FEW OR NO CLOUDS BELOW 12,000 FEET WITH NO
SIGNIFICANT WEATHER AND/OR NO OBSTRUCTIONS TO VISIBILITY.

NYZ032-033-038>043-046>054-057>066-NYZ062>081-082-084-241000-
EAST


CITY           SKY/WX    TMP DP  RH WIND       PRES   REMARKS
ALBANY         CLEAR     41  35  79 CALM      30.10R
GLENS FALLS    CLEAR     37  30  75 CALM      30.11R
POUGHKEEPSIE   CLEAR     40  37  89 CALM      30.11R
NEWBURGH       CLEAR     43  41  93 CALM      30.10S
MONTGOMERY     CLEAR     41  39  93 SW5       30.10R
WHITE PLAINS   CLEAR     42  40  92 CALM      30.11S
ISLIP          CLEAR     39  38  96 CALM      30.12S
NEW YORK CITY  MOCLDY    49  43  80 E3        30.12R
CENTRAL PARK   CLEAR     50  41  71 CALM      30.15R
$$

NYZ005>009-017-018-044>046-055-056-241000-
CENTRAL


CITY           SKY/WX    TMP DP  RH WIND       PRES   REMARKS
FULTON         CLEAR     41  36  82 N3        30.10R
SYRACUSE       CLEAR     40  36  86 CALM      30.09R
ROME           CLEAR     34  33  96 SE5       30.11R WCI  30
ELMIRA         CLEAR     36  33  89 W3        30.10R
BINGHAMTON     CLEAR     47  31  53 CALM      30.08R
MONTICELLO     CLEAR     39  36  87 CALM      30.11S
$$

NYZ026>034-041>043-087-241000-
NORTH


CITY           SKY/WX    TMP DP  RH WIND       PRES   REMARKS
WATERTOWN      CLEAR     38  34  85 NE8       30.14R WCI  32
FORT DRUM      NOT AVBL
OGDENSBURG     FAIR      37  31  77 N8        30.19R WCI  31
MASSENA        CLOUDY    39  27  62 N6        30.20R WCI  35
SARANAC LAKE   CLEAR     29  28  96 CALM      30.09R
PLATTSBURGH    CLEAR     42  32  67 N10       30.16R
$$

NYZ001>004-010>016-019>021-085-241000-
WEST


CITY           SKY/WX    TMP DP  RH WIND       PRES   REMARKS
BUFFALO        CLEAR     41  29  62 CALM      30.09R
DUNKIRK        CLEAR     34  31  88 SE5       30.08R WCI  30
JAMESTOWN      CLEAR     45  19  36 N6        30.07S
WELLSVILLE     CLEAR     43  30  60 CALM      30.09S
ROCHESTER      CLEAR     45  36  70 E9        30.12R
PENN YAN       CLEAR     41  36  82 SW6       30.10R
$$

             KEY
       WCI = WIND CHILL INDEX
       VSB = VISIBILITY
       HX  = HEAT INDEX
$$




USA.gov is the U.S. government's official web portal to all federal, state and local government web resources and services.